Weather History for Sault Ste Marie, MI

Change the Weather History Date:

Wednesday, January 2, 2013

  Actual Average Record
Temperature  
Mean Temperature 16 °F 17 °F  
Max Temperature 19 °F 24 °F 43 °F (1998)
Min Temperature 13 °F 10 °F -22 °F (1981)
Degree Days  
Heating Degree Days 49 48  
Month to date heating degree days 103 96  
Since 1 July heating degree days 3072 3355  
Moisture  
Dew Point 9 °F    
Average Humidity 70    
Maximum Humidity 80    
Minimum Humidity 59    
Precipitation  
Precipitation 0.01 in 0.07 in 1.02 in (2000)
Month to date precipitation 0.03 0.15  
Year to date precipitation 0.03 0.15  
Snow  
Snow 0.70 in 1.00 in 10.00 in (2000)
Month to date snowfall 1.4 2.0  
Since 1 July snowfall 53.4 52.2  
Snow Depth 10.00 in    
Sea Level Pressure  
Sea Level Pressure 30.05 in    
Wind  
Wind Speed 7 mph (ESE)    
Max Wind Speed 17 mph    
Max Gust Speed 21 mph    
Visibility 6 miles    
Events Snow    
T = Trace of Precipitation, MM = Missing Value Source: NWS Daily Summary

Daily Weather History Graph

Daily Weather History Graph

Search for Another Location

Airport:

Trip Planner

Search our weather history database for the weather conditions in past years. The results will help you decide how hot, cold, wet, or windy it might be!

Date:

Astronomy

Jan. 02, 2013 Rise Set
Actual Time 8:21 AM EST 5:02 PM EST
Civil Twilight 7:46 AM EST 5:37 PM EST
Nautical Twilight 7:08 AM EST 6:15 PM EST
Astronomical Twilight 6:31 AM EST 6:51 PM EST
Moon 10:55 PM EST (1/2) 10:43 AM EST (1/2)
Length of Visible Light 9h 50m
Length of Day
8h 41m
Waning Gibbous, 75% of the Moon is Illuminated
Jan 2
Waning Gibbous
Jan 4
Last Quarter
Jan 11
New
Jan 18
First Quarter
Jan 26
Full

Hourly Weather History & Observations

Time (EST) Temp. Windchill Dew Point Humidity Pressure Visibility Wind Dir Wind Speed Gust Speed Precip Events Conditions
12:55 AM 16.0 °F 1.7 °F 6.1 °F 65% 29.91 in 6.0 mi WSW 13.8 mph - 0.00 in Snow Light Snow
1:15 AM 16.0 °F 3.6 °F 7.0 °F 68% 29.87 in 5.0 mi WSW 10.4 mph - 0.00 in Snow Light Snow
1:45 AM 15.1 °F 7.7 °F 7.0 °F 70% 29.88 in 5.0 mi South 4.6 mph - 0.00 in Snow Light Snow
1:55 AM 15.1 °F 9.4 °F 6.1 °F 68% 29.92 in 4.0 mi South 3.5 mph - 0.00 in Snow Light Snow
2:55 AM 16.0 °F 6.3 °F 8.1 °F 71% 29.94 in 7.0 mi SSW 6.9 mph - 0.00 in Snow Light Snow
3:27 AM 17.1 °F 6.6 °F 9.0 °F 71% 29.91 in 8.0 mi SW 8.1 mph - 0.00 in Snow Light Snow
3:55 AM 18.0 °F 7.7 °F 10.9 °F 74% 29.95 in 9.0 mi WSW 8.1 mph - 0.00 in Snow Light Snow
4:55 AM 19.0 °F - 14.0 °F 81% 29.96 in 8.0 mi Calm Calm - 0.00 in Snow Light Snow
5:55 AM 17.1 °F 11.7 °F 10.9 °F 77% 29.99 in 8.0 mi ESE 3.5 mph - 0.00 in Snow Light Snow
6:55 AM 17.1 °F 10.0 °F 10.9 °F 77% 30.03 in 7.0 mi ENE 4.6 mph - 0.00 in Snow Light Snow
7:11 AM 17.1 °F 11.7 °F 10.9 °F 77% 29.99 in 8.0 mi East 3.5 mph - 0.00 in Snow Light Snow
7:26 AM 17.1 °F 11.7 °F 10.9 °F 77% 30.00 in 7.0 mi East 3.5 mph - 0.00 in Snow Light Snow
7:55 AM 17.1 °F 10.0 °F 10.9 °F 77% 30.05 in 4.0 mi ESE 4.6 mph - 0.00 in Snow Light Snow
8:55 AM 15.1 °F 4.2 °F 9.0 °F 77% 30.07 in 3.0 mi ENE 8.1 mph - 0.00 in Snow Light Snow
9:11 AM 14.0 °F 2.9 °F 8.1 °F 77% 30.04 in 2.5 mi ENE 8.1 mph - 0.00 in Snow Light Snow
9:23 AM 14.0 °F 5.1 °F 8.1 °F 77% 30.04 in 2.5 mi ENE 5.8 mph - 0.00 in Snow Light Snow
9:55 AM 14.0 °F 2.9 °F 8.1 °F 77% 30.09 in 2.5 mi ENE 8.1 mph - 0.00 in Snow Light Snow
10:03 AM 14.0 °F 2.9 °F 8.1 °F 77% 30.05 in 3.0 mi East 8.1 mph - 0.00 in Snow Light Snow
10:55 AM 16.0 °F 8.8 °F 9.0 °F 74% 30.11 in 4.0 mi ENE 4.6 mph - 0.00 in Snow Light Snow
11:55 AM 17.1 °F 7.6 °F 8.1 °F 68% 30.12 in 10.0 mi SE 6.9 mph - 0.00 in   Overcast
12:30 PM 17.1 °F 7.6 °F 8.1 °F 68% 30.07 in 10.0 mi Variable 6.9 mph - N/A   Overcast
12:38 PM 17.1 °F 8.7 °F 9.0 °F 71% 30.07 in 10.0 mi ESE 5.8 mph - N/A   Overcast
12:55 PM 17.1 °F 6.6 °F 8.1 °F 68% 30.11 in 10.0 mi East 8.1 mph - N/A   Overcast
1:55 PM 17.1 °F 6.6 °F 8.1 °F 68% 30.11 in 10.0 mi ESE 8.1 mph - N/A   Overcast
2:55 PM 17.1 °F 7.6 °F 9.0 °F 71% 30.10 in 7.0 mi ESE 6.9 mph - 0.00 in Snow Light Snow
3:55 PM 17.1 °F 6.6 °F 9.0 °F 71% 30.10 in 10.0 mi ESE 8.1 mph - 0.00 in   Mostly Cloudy
4:55 PM 16.0 °F 6.3 °F 10.0 °F 77% 30.12 in 4.0 mi ESE 6.9 mph - 0.00 in Snow Light Snow
5:47 PM 16.0 °F 6.3 °F 10.0 °F 77% 30.10 in 2.0 mi East 6.9 mph - 0.00 in Snow Light Snow
5:55 PM 16.0 °F 6.3 °F 10.0 °F 77% 30.14 in 2.0 mi East 6.9 mph - 0.00 in Snow Light Snow
6:13 PM 15.1 °F 6.4 °F 10.0 °F 80% 30.09 in 4.0 mi East 5.8 mph - 0.00 in Snow Light Snow
6:20 PM 15.1 °F 4.2 °F 10.0 °F 80% 30.09 in 6.0 mi East 8.1 mph - 0.00 in Snow Light Snow
6:55 PM 15.1 °F 4.2 °F 10.0 °F 80% 30.13 in 7.0 mi East 8.1 mph - 0.00 in Snow Light Snow
7:18 PM 15.1 °F 3.3 °F 10.0 °F 80% 30.09 in 2.5 mi East 9.2 mph - 0.00 in Snow Light Snow
7:26 PM 15.1 °F 3.3 °F 10.0 °F 80% 30.09 in 3.0 mi East 9.2 mph - 0.00 in Snow Light Snow
7:35 PM 15.1 °F 3.3 °F 10.0 °F 80% 30.08 in 2.0 mi East 9.2 mph - 0.00 in Snow Light Snow
7:55 PM 15.1 °F 4.2 °F 10.0 °F 80% 30.12 in 4.0 mi East 8.1 mph - 0.00 in Snow Light Snow
8:19 PM 15.1 °F 4.2 °F 10.0 °F 80% 30.08 in 2.5 mi East 8.1 mph - 0.00 in Snow Light Snow
8:38 PM 14.0 °F 3.9 °F 9.0 °F 80% 30.07 in 4.0 mi East 6.9 mph - 0.00 in Snow Light Snow
8:55 PM 14.0 °F 2.9 °F 9.0 °F 80% 30.11 in 7.0 mi East 8.1 mph - 0.00 in Snow Light Snow
9:11 PM 14.0 °F 2.9 °F 9.0 °F 80% 30.06 in 10.0 mi East 8.1 mph - 0.00 in   Overcast
9:43 PM 14.0 °F 2.0 °F 8.1 °F 77% 30.07 in 10.0 mi East 9.2 mph - 0.00 in   Overcast
9:55 PM 14.0 °F 2.9 °F 9.0 °F 80% 30.11 in 7.0 mi East 8.1 mph - 0.00 in Snow Light Snow
10:55 PM 12.9 °F 0.7 °F 9.0 °F 84% 30.10 in 6.0 mi East 9.2 mph - 0.00 in Snow Light Snow
11:55 PM 14.0 °F 2.9 °F 9.0 °F 80% 30.09 in 5.0 mi East 8.1 mph - 0.00 in Snow Light Snow